Regional Weather Roundup
Issued by NWS

Home | Current Version | Previous Version | Graphics & Text | Print | Product List | Glossary On
Versions: 1 2 3 4 5 6 7 8 9 10 11 12 13 14 15 16 17 18 19 20 21 22 23 24 25 26 27 28 29 30 31 32 33 34 35 36 37 38 39 40 41 42 43 44 45 46 47 48 49 50
000
ASUS43 KIND 170509
RWRIN

WEATHER ROUNDUP FOR INDIANA
NATIONAL WEATHER SERVICE INDIANAPOLIS IN
100 AM EDT THU AUG 17 2017

NOTE: "FAIR" INDICATES FEW OR NO CLOUDS BELOW 12,000 FEET WITH NO
SIGNIFICANT WEATHER AND/OR OBSTRUCTIONS TO VISIBILITY.

* - STATION DOES NOT REPORT WEATHER SUCH AS PRECIPITATION OR FOG.

+ - STATION NOT QUALITY CONTROLLED BY THE NATIONAL WEATHER SERVICE.
    USE DATA WITH CAUTION...ESPECIALLY DEWPOINT AND RELATIVE
    HUMIDITY OBSERVATIONS.

INZ001>003-010>013-019-020-170600-
NORTHWEST INDIANA

CITY           SKY/WX    TMP DP  RH WIND       PRES   REMARKS
GARY /AIRPORT/ MOCLDY    81  72  74 S9        29.85S
KNOX *+        PTCLDY    77  72  83 S8        29.88F
LA PORTE +     MOCLDY    75  71  86 S3        29.89S
MICHIGAN CITY+ MOCLDY    77  70  78 S5        29.87F
MONTICELLO +   CLOUDY    77  73  85 S8        29.90R
RENSSELAER +   CLOUDY    77  68  73 S12       29.89S
VALPARAISO     CLOUDY    78  73  84 S6        29.88S

$$

LMZ046-743>745-170600-
SOUTHERN LAKE MICHIGAN

STATION/POSITION TIME  TEMP    WIND        PRES    WAVE
                       AIR SEA DIR/SP/G            HT
                 (UTC) (F)     (DEG/KT/KT) (MB)    (FT)
BURNS HARBOR     0505   80     180/ 11/ 19 1011.2
MICHIGAN CITY    0440   78     150/  8/ 10   N/A
5NW MICH CITY    0500   78 75  170/ 12/ 16   N/A     1

$$

INZ004-005-014>016-021>024-170600-
NORTH CENTRAL INDIANA

CITY           SKY/WX    TMP DP  RH WIND       PRES   REMARKS
GOSHEN         MOCLDY    77  67  71 SE7       29.90F
LOGANSPORT +   CLOUDY    75  70  83 S5        29.91S
PERU/GRISSOM   PTCLDY    76  73  89 S6        29.91F
ROCHESTER +    CLOUDY    79  72  78 S6        29.91F
SOUTH BEND     MOCLDY    77  72  84 S7        29.89F
WARSAW +       CLOUDY    77  70  78 CALM      29.92S

$$

INZ006>009-017-018-025>027-170600-
NORTHEAST INDIANA

CITY           SKY/WX    TMP DP  RH WIND       PRES   REMARKS
AUBURN +       MOCLDY    73  66  78 E5        29.95S
FORT WAYNE     CLOUDY    75  68  78 SE5       29.93F
HUNTINGTON +   MOCLDY    75  70  85 SE3       29.93S
KENDALLVILLE + CLOUDY    73  68  83 SE6       29.94F

$$

INZ028-029-035-036-043>045-051>053-170600-
WEST CENTRAL INDIANA

CITY           SKY/WX    TMP DP  RH WIND       PRES   REMARKS
GREENCASTLE +  CLOUDY    73  72  94 S5        29.92F FOG
LAFAYETTE      CLOUDY    77  73  87 SW3       29.90R
TERRE HAUTE    MOCLDY    74  71  91 S7        29.91F

$$

INZ030>032-037>040-046>048-054>057-064-065-170600-
CENTRAL INDIANA

CITY           SKY/WX    TMP DP  RH WIND       PRES   REMARKS
CP ATTERBURY + CLOUDY    75  70  83 S6        29.94F
FRANKFORT +    CLOUDY    78  73  86 S3        29.93S
GREENWOOD *+   CLOUDY    77  70  78 S6        29.94F
INDIANAPOLIS   CLOUDY    78  72  81 S13       29.90F
-EAGLE CREEK   CLOUDY    80  71  74 MISG      29.91F
KOKOMO +       MOCLDY    75  72  90 S7        29.93F
MARION +       CLOUDY    75  70  83 S3        29.94S
MT COMFORT *+  PTCLDY    75  72  88 S5        29.94F
SHELBYVILLE    MOCLDY    77  71  82 S8        29.93F
ZIONSVILLE +   CLOUDY    77  71  82 S7        29.93F

$$

INZ033-034-041-042-049-050-058-059-170600-
EAST CENTRAL INDIANA

CITY           SKY/WX    TMP DP  RH WIND       PRES   REMARKS
MUNCIE         CLOUDY    79  70  74 S7        29.94F
RICHMOND +     MOCLDY    70  70 100 S7        29.99S FOG

$$

INZ060-061-067>069-081>083-085>088-170600-
SOUTHWEST INDIANA

CITY           SKY/WX    TMP DP  RH WIND       PRES   REMARKS
EVANSVILLE     CLOUDY    78  74  87 S5        29.92F
HUNTINGBURG +  PTCLDY    77  74  90 S12       29.94F
WASHINGTON +   CLOUDY    76  74  93 MISG      29.92F

$$

INZ062-063-066-070>080-084-089>092-170600-
SOUTH CENTRAL AND SOUTHEAST INDIANA

CITY           SKY/WX    TMP DP  RH WIND       PRES   REMARKS
BEDFORD +      CLOUDY    75  70  83 S8        29.93F
BLOOMINGTON    CLOUDY    76  72  87 S6        29.93F
MADISON *+     CLOUDY    75  72  88 S5        30.00F
NORTH VERNON + CLEAR     73  70  88 S7        29.97F
SEYMOUR +      MOCLDY    77  70  78 S6        29.95F

$$





USA.gov is the U.S. government's official web portal to all federal, state and local government web resources and services.